{"data":{"norad_id":67328,"epoch":"2026-05-24T15:33:18.034560Z","epoch_age_seconds":112557,"freshness":"FRESH","line1":"1 67328U 26002Z   26144.64812540  .00015111  00000+0  55738-3 0  9992","line2":"2 67328  43.0027 256.4803 0001377 290.2913  69.7791 15.27588506 22859","mean_motion":15.27588506,"eccentricity":0.0001377,"inclination_deg":43.0027,"raan_deg":256.4803,"arg_perigee_deg":290.2913,"mean_anomaly_deg":69.7791,"bstar":0.00055738,"rev_number":2285,"period_min":94.266223812501,"perigee_km":482.0788443156,"apogee_km":483.96840795204,"semimajor_km":6861.1606261338,"source":"CELESTRAK","updated_at":"2026-05-25T13:38:21.520031Z"}}